User: anonymous   Login
Location: Oshawa
(43.9000°N, 78.8670°W)
Time: 06:07:39
(UTC-04:00)
Language:

CARTOSAT-1 - Orbit

View from above orbital plane
View from above orbital plane
View from above satellite
View from above satellite

Ground track
Ground track

The orbit data is extracted from the following two-line orbital elements,

1 28649U 05017A   16177.73938635  .00000256  00000-0  37628-4 0  9991
2 28649  97.8984 250.9200 0003182 108.5733 251.5827 14.83436994603139
Epoch (UTC): 25 June 2016 17:44:42
Eccentricity: 0.0003182
inclination: 97.8984°
perigee height: 616 km
apogee height: 621 km
right ascension of ascending node: 250.9200°
argument of perigee: 108.5733°
revolutions per day: 14.83436994
mean anomaly at epoch: 251.5827°
orbit number at epoch: 60313

The dashed part of the orbit path shows where the satellite is in the earth's shadow,  

DLR